{"data":{"norad_id":68342,"epoch":"2026-05-24T20:21:28.943424Z","epoch_age_seconds":91257,"freshness":"FRESH","line1":"1 68342U 26059X   26144.84825166  .00059147  00000+0  10627-2 0  9995","line2":"2 68342  53.1588 351.1322 0000794  76.8627 283.2471 15.49330303  9881","mean_motion":15.49330303,"eccentricity":7.94e-5,"inclination_deg":53.1588,"raan_deg":351.1322,"arg_perigee_deg":76.8627,"mean_anomaly_deg":283.2471,"bstar":0.0010627,"rev_number":988,"period_min":92.943383164436,"perigee_km":418.14431064612,"apogee_km":419.22364581747,"semimajor_km":6796.8209782318,"source":"CELESTRAK","updated_at":"2026-05-25T13:38:21.926061Z"}}